Time,TemperatureF,DewpointF,PressureIn,WindDirection,WindDirectionDegrees,WindSpeedMPH,WindSpeedGustMPH,Humidity,HourlyPrecipIn,Conditions,Clouds,dailyrainin,SolarRadiationWatts/m^2,SoftwareType,DateUTC
2013-12-01 00:02:00,24.0,22.0,-100.00,NNE,19,2.0,6.0,91,0.00,,,0.00,0.000000,,2013-12-01 06:02:00,
2013-12-01 00:42:00,24.0,22.0,-100.00,NNE,20,3.0,5.0,91,0.00,,,0.00,0.000000,,2013-12-01 06:42:00,
2013-12-01 00:52:00,24.0,22.0,-100.00,NNE,20,3.0,5.0,91,0.00,,,0.00,0.000000,,2013-12-01 06:52:00,
2013-12-01 01:01:00,24.0,22.0,-100.00,NNE,20,3.0,5.0,91,0.00,,,0.00,0.000000,,2013-12-01 07:01:00,
2013-12-01 01:42:00,24.0,22.0,-100.00,NNW,345,1.0,5.0,90,0.00,,,0.00,0.000000,,2013-12-01 07:42:00,
2013-12-01 01:52:00,24.0,22.0,-100.00,NNW,345,1.0,5.0,90,0.00,,,0.00,0.000000,,2013-12-01 07:52:00,
2013-12-01 02:02:00,24.0,22.0,-100.00,NNW,345,1.0,5.0,90,0.00,,,0.00,0.000000,,2013-12-01 08:02:00,
2013-12-01 02:42:00,24.0,22.0,-100.00,NNW,341,2.0,3.0,91,0.00,,,0.00,0.000000,,2013-12-01 08:42:00,
2013-12-01 02:52:00,24.0,22.0,-100.00,NNW,341,2.0,3.0,91,0.00,,,0.00,0.000000,,2013-12-01 08:52:00,
2013-12-01 03:02:00,24.0,22.0,-100.00,NNW,341,2.0,3.0,91,0.00,,,0.00,0.000000,,2013-12-01 09:02:00,
2013-12-01 03:43:00,24.0,22.0,-100.00,ENE,61,2.0,3.0,91,0.00,,,0.00,0.000000,,2013-12-01 09:43:00,
2013-12-01 03:54:00,24.0,22.0,-100.00,ENE,61,2.0,3.0,91,0.00,,,0.00,0.000000,,2013-12-01 09:54:00,
2013-12-01 04:03:00,24.0,22.0,-100.00,ENE,61,2.0,3.0,91,0.00,,,0.00,0.000000,,2013-12-01 10:03:00,
2013-12-01 04:42:00,23.0,21.0,-100.00,ENE,65,2.0,4.0,92,0.00,,,0.00,0.000000,,2013-12-01 10:42:00,
2013-12-01 04:53:00,23.0,21.0,-100.00,ENE,65,2.0,4.0,92,0.00,,,0.00,0.000000,,2013-12-01 10:53:00,
2013-12-01 05:02:00,23.0,21.0,-100.00,ENE,65,2.0,4.0,92,0.00,,,0.00,0.000000,,2013-12-01 11:02:00,
2013-12-01 05:22:00,23.0,21.0,-100.00,WSW,254,2.0,3.0,93,0.00,,,0.00,0.000000,,2013-12-01 11:22:00,
2013-12-01 05:33:00,23.0,21.0,-100.00,WSW,254,2.0,3.0,93,0.00,,,0.00,0.000000,,2013-12-01 11:33:00,
2013-12-01 05:42:00,23.0,21.0,-100.00,WSW,254,2.0,3.0,93,0.00,,,0.00,0.000000,,2013-12-01 11:42:00,
2013-12-01 05:52:00,23.0,21.0,-100.00,WSW,254,2.0,3.0,93,0.00,,,0.00,0.000000,,2013-12-01 11:52:00,
2013-12-01 06:02:00,23.0,21.0,-100.00,WSW,254,2.0,3.0,93,0.00,,,0.00,0.000000,,2013-12-01 12:02:00,
2013-12-01 06:42:00,23.0,21.0,-100.00,West,265,0.0,2.0,93,0.00,,,0.00,0.000000,,2013-12-01 12:42:00,
2013-12-01 06:52:00,23.0,21.0,-100.00,West,265,0.0,2.0,93,0.00,,,0.00,0.000000,,2013-12-01 12:52:00,
2013-12-01 07:01:00,23.0,21.0,-100.00,West,265,0.0,2.0,93,0.00,,,0.00,0.000000,,2013-12-01 13:01:00,
2013-12-01 07:42:00,23.0,22.0,-100.00,WSW,255,1.0,2.0,94,0.00,,,0.00,0.000000,,2013-12-01 13:42:00,
2013-12-01 07:52:00,23.0,22.0,-100.00,WSW,255,1.0,2.0,94,0.00,,,0.00,0.000000,,2013-12-01 13:52:00,
2013-12-01 08:02:00,23.0,22.0,-100.00,WSW,255,1.0,2.0,94,0.00,,,0.00,0.000000,,2013-12-01 14:02:00,
2013-12-01 08:42:00,23.0,21.0,-100.00,SE,139,1.0,2.0,93,0.00,,,0.00,1.000000,,2013-12-01 14:42:00,
2013-12-01 08:52:00,23.0,21.0,-100.00,SE,139,1.0,2.0,93,0.00,,,0.00,1.000000,,2013-12-01 14:52:00,
2013-12-01 09:01:00,23.0,21.0,-100.00,SE,139,1.0,2.0,93,0.00,,,0.00,1.000000,,2013-12-01 15:01:00,
2013-12-01 09:43:00,23.0,21.0,-100.00,SE,129,3.0,4.0,93,0.00,,,0.00,12.000000,,2013-12-01 15:43:00,
2013-12-01 09:53:00,23.0,21.0,-100.00,SE,129,3.0,4.0,93,0.00,,,0.00,12.000000,,2013-12-01 15:53:00,
2013-12-01 10:03:00,23.0,21.0,-100.00,SE,129,3.0,4.0,93,0.00,,,0.00,12.000000,,2013-12-01 16:03:00,
2013-12-01 10:43:00,24.0,22.0,-100.00,SSE,162,3.0,5.0,92,0.00,,,0.00,24.000000,,2013-12-01 16:43:00,
2013-12-01 10:52:00,24.0,22.0,-100.00,SSE,162,3.0,5.0,92,0.00,,,0.00,24.000000,,2013-12-01 16:52:00,
2013-12-01 11:02:00,24.0,22.0,-100.00,SSE,162,3.0,5.0,92,0.00,,,0.00,24.000000,,2013-12-01 17:02:00,
2013-12-01 11:42:00,26.0,23.0,-100.00,SW,222,3.0,5.0,88,0.00,,,0.00,44.000000,,2013-12-01 17:42:00,
2013-12-01 11:52:00,26.0,23.0,-100.00,SW,222,3.0,5.0,88,0.00,,,0.00,44.000000,,2013-12-01 17:52:00,
2013-12-01 12:02:00,26.0,23.0,-100.00,SW,222,3.0,5.0,88,0.00,,,0.00,44.000000,,2013-12-01 18:02:00,
2013-12-01 12:42:00,26.0,23.0,-100.00,SSW,200,5.0,9.0,90,0.00,,,0.00,48.000000,,2013-12-01 18:42:00,
2013-12-01 12:52:00,26.0,23.0,-100.00,SSW,200,5.0,9.0,90,0.00,,,0.00,48.000000,,2013-12-01 18:52:00,
2013-12-01 13:02:00,26.0,23.0,-100.00,SSW,200,5.0,9.0,90,0.00,,,0.00,48.000000,,2013-12-01 19:02:00,
2013-12-01 13:42:00,26.0,23.0,-100.00,SW,215,4.0,7.0,89,0.00,,,0.00,56.000000,,2013-12-01 19:42:00,
2013-12-01 13:52:00,26.0,23.0,-100.00,SW,215,4.0,7.0,89,0.00,,,0.00,56.000000,,2013-12-01 19:52:00,
2013-12-01 14:01:00,26.0,23.0,-100.00,SW,215,4.0,7.0,89,0.00,,,0.00,56.000000,,2013-12-01 20:01:00,
2013-12-01 14:42:00,25.0,22.0,-100.00,SW,215,4.0,7.0,89,0.00,,,0.00,41.000000,,2013-12-01 20:42:00,
2013-12-01 14:52:00,25.0,22.0,-100.00,SW,215,4.0,7.0,89,0.00,,,0.00,41.000000,,2013-12-01 20:52:00,
2013-12-01 15:02:00,25.0,22.0,-100.00,SW,215,4.0,7.0,89,0.00,,,0.00,41.000000,,2013-12-01 21:02:00,
2013-12-01 15:43:00,25.0,23.0,-100.00,SSW,210,5.0,6.0,91,0.00,,,0.00,27.000000,,2013-12-01 21:43:00,
2013-12-01 15:53:00,25.0,23.0,-100.00,SSW,210,5.0,6.0,91,0.00,,,0.00,27.000000,,2013-12-01 21:53:00,
2013-12-01 16:03:00,25.0,23.0,-100.00,SSW,210,5.0,6.0,91,0.00,,,0.00,27.000000,,2013-12-01 22:03:00,
2013-12-01 16:42:00,24.0,22.0,-100.00,SSW,206,4.0,6.0,91,0.00,,,0.00,13.000000,,2013-12-01 22:42:00,
2013-12-01 16:52:00,24.0,22.0,-100.00,SSW,206,4.0,6.0,91,0.00,,,0.00,13.000000,,2013-12-01 22:52:00,
2013-12-01 17:02:00,24.0,22.0,-100.00,SSW,206,4.0,6.0,91,0.00,,,0.00,13.000000,,2013-12-01 23:02:00,
2013-12-01 17:42:00,23.0,21.0,-100.00,SW,231,5.0,7.0,91,0.00,,,0.00,0.000000,,2013-12-01 23:42:00,
2013-12-01 17:52:00,23.0,21.0,-100.00,SW,231,5.0,7.0,91,0.00,,,0.00,0.000000,,2013-12-01 23:52:00,
2013-12-01 18:02:00,23.0,21.0,-100.00,SW,231,5.0,7.0,91,0.00,,,0.00,0.000000,,2013-12-02 00:02:00,
2013-12-01 18:22:00,23.0,21.0,-100.00,NNW,333,3.0,6.0,90,0.00,,,0.00,0.000000,,2013-12-02 00:22:00,
2013-12-01 18:32:00,23.0,21.0,-100.00,NNW,333,3.0,6.0,90,0.00,,,0.00,0.000000,,2013-12-02 00:32:00,
2013-12-01 18:42:00,23.0,21.0,-100.00,NNW,333,3.0,6.0,90,0.00,,,0.00,0.000000,,2013-12-02 00:42:00,
2013-12-01 18:52:00,23.0,21.0,-100.00,NNW,333,3.0,6.0,90,0.00,,,0.00,0.000000,,2013-12-02 00:52:00,
2013-12-01 19:01:00,23.0,21.0,-100.00,NNW,333,3.0,6.0,90,0.00,,,0.00,0.000000,,2013-12-02 01:01:00,
2013-12-01 19:42:00,22.0,20.0,-100.00,WNW,293,3.0,5.0,91,0.00,,,0.00,0.000000,,2013-12-02 01:42:00,
2013-12-01 19:52:00,22.0,20.0,-100.00,WNW,293,3.0,5.0,91,0.00,,,0.00,0.000000,,2013-12-02 01:52:00,
2013-12-01 20:01:00,22.0,20.0,-100.00,WNW,293,3.0,5.0,91,0.00,,,0.00,0.000000,,2013-12-02 02:01:00,
2013-12-01 20:22:00,22.0,20.0,-100.00,West,267,3.0,4.0,92,0.00,,,0.00,0.000000,,2013-12-02 02:22:00,
2013-12-01 20:32:00,22.0,20.0,-100.00,West,267,3.0,4.0,92,0.00,,,0.00,0.000000,,2013-12-02 02:32:00,
2013-12-01 20:42:00,22.0,20.0,-100.00,West,267,3.0,4.0,92,0.00,,,0.00,0.000000,,2013-12-02 02:42:00,
2013-12-01 20:52:00,22.0,20.0,-100.00,West,267,3.0,4.0,92,0.00,,,0.00,0.000000,,2013-12-02 02:52:00,
2013-12-01 21:02:00,22.0,20.0,-100.00,West,267,3.0,4.0,92,0.00,,,0.00,0.000000,,2013-12-02 03:02:00,
2013-12-01 21:43:00,22.0,20.0,-100.00,WSW,256,3.0,4.0,91,0.00,,,0.00,0.000000,,2013-12-02 03:43:00,
2013-12-01 21:54:00,22.0,20.0,-100.00,WSW,256,3.0,4.0,91,0.00,,,0.00,0.000000,,2013-12-02 03:54:00,
2013-12-01 22:03:00,22.0,20.0,-100.00,WSW,256,3.0,4.0,91,0.00,,,0.00,0.000000,,2013-12-02 04:03:00,
2013-12-01 22:43:00,22.0,20.0,-100.00,WSW,257,3.0,5.0,90,0.00,,,0.00,0.000000,,2013-12-02 04:43:00,
2013-12-01 22:53:00,22.0,20.0,-100.00,WSW,257,3.0,5.0,90,0.00,,,0.00,0.000000,,2013-12-02 04:53:00,
2013-12-01 23:02:00,22.0,20.0,-100.00,WSW,257,3.0,5.0,90,0.00,,,0.00,0.000000,,2013-12-02 05:02:00,
2013-12-01 23:43:00,22.0,20.0,-100.00,West,279,2.0,5.0,91,0.00,,,0.00,0.000000,,2013-12-02 05:43:00,
2013-12-01 23:53:00,22.0,20.0,-100.00,West,279,2.0,5.0,91,0.00,,,0.00,0.000000,,2013-12-02 05:53:00,